Wind_Speed
9 11 13 15 14 13 13 12 13 14 13 13 14 14 15 15 16 15 13 12 14 13 11 11 10 7 6 4 4 3 2 0 1 1 3 4 5 4 4 5 7 7 7 7 5 3 2 1 1
7 9 10 12 13 14 12 10 11 10 10 11 11 11 12 12 12 14 12 10 9 9 8 7 7 6 4 2 1 1 2 3 3 4 5 6 7 5 3 3 5 6 6 6 5 4 3 1 1
7 8 8 9 10 11 10 9 8 7 7 8 8 8 9 9 9 10 11 10 8 6 5 5 5 4 3 2 2 2 4 6 6 6 7 8 8 8 7 6 7 7 7 6 5 5 4 3 3
9 7 6 5 5 5 6 4 5 7 5 5 6 5 4 6 6 6 7 7 7 5 5 5 5 4 4 5 5 4 6 9 9 7 7 7 6 6 6 7 10 10 9 7 6 6 6 6 5
9 6 5 4 3 1 2 1 1 2 3 3 3 4 4 4 4 5 6 6 6 5 5 6 6 5 6 7 7 8 10 11 11 10 7 6 6 6 6 8 12 12 10 9 7 7 7 8 8
9 7 6 6 5 4 4 4 4 5 5 6 6 7 7 5 4 4 4 5 6 7 8 8 7 7 8 9 10 11 13 15 14 12 9 6 7 8 8 9 10 10 9 10 10 9 8 8 10
7 7 7 7 6 5 4 3 2 5 8 10 10 11 10 7 5 4 3 3 5 7 8 9 10 10 11 12 14 14 15 15 14 13 10 9 9 10 10 9 9 8 9 10 10 10 9 8 9
8 8 7 7 6 4 4 4 5 6 8 10 11 11 11 10 9 8 6 5 5 7 8 8 9 11 12 13 14 15 16 15 14 13 13 13 13 13 12 11 10 9 10 10 10 9 9 9 9
12 11 11 11 9 7 6 5 7 7 7 7 8 9 9 10 10 9 8 7 7 8 8 8 9 10 11 13 15 16 16 16 15 15 15 15 17 17 18 18 16 14 13 12 10 9 8 8 9
17 16 18 15 14 12 9 8 7 8 8 7 7 7 8 8 9 9 8 8 9 10 10 10 11 11 12 13 14 15 16 17 17 18 19 19 20 21 22 23 23 20 17 15 12 10 9 8 9
21 21 22 21 19 16 14 13 11 11 12 12 9 8 8 9 10 11 11 11 11 12 13 14 14 14 14 15 15 16 17 19 18 19 19 20 20 21 22 24 25 23 21 19 17 14 12 10 9
25 25 25 26 24 22 21 19 16 15 17 16 15 14 13 13 14 16 16 15 15 16 17 18 18 18 19 20 21 21 21 21 20 19 19 20 20 21 23 24 25 25 24 22 21 19 16 13 12
30 28 28 28 29 29 27 25 21 22 23 22 21 21 20 21 21 21 22 21 21 21 22 22 22 23 24 25 26 26 26 27 27 26 24 23 23 23 25 26 26 26 25 25 24 23 20 18 17
33 32 31 32 33 33 32 30 28 29 27 27 26 26 27 28 28 27 27 27 28 29 29 29 30 29 30 31 32 32 32 33 33 33 32 29 27 26 27 28 28 28 27 27 26 26 24 22 21
36 36 36 37 37 37 35 33 38 36 34 33 32 31 31 32 32 32 32 33 34 35 35 36 36 36 36 37 38 37 37 38 38 37 37 36 33 31 30 30 30 30 30 29 29 29 28 27 25
39 38 39 42 40 41 38 36 48 41 39 38 37 36 35 36 37 37 37 38 39 39 39 40 41 42 43 43 43 44 43 42 42 41 42 42 40 38 35 33 33 33 33 33 33 33 31 30 29
39 39 41 43 43 43 42 44 50 45 44 43 42 41 41 41 42 42 42 43 44 44 44 45 45 45 47 47 48 49 50 48 47 46 47 47 46 43 40 38 38 37 36 36 37 36 34 33 33
33 35 37 39 42 43 45 48 49 48 47 46 46 45 45 44 45 46 47 47 48 49 49 49 48 48 49 50 51 53 55 55 54 53 54 54 52 50 48 45 44 44 41 39 38 38 37 36 35
25 26 29 32 34 37 41 45 46 47 47 47 46 45 44 43 43 44 45 45 46 47 47 46 47 48 49 51 53 55 58 61 61 61 60 59 59 59 58 54 50 49 48 44 41 40 39 37 36
25 25 27 27 28 29 32 35 36 38 41 42 42 42 41 40 40 41 41 41 42 43 44 45 46 48 50 51 53 56 59 62 63 63 62 60 60 61 60 59 55 54 53 49 46 42 40 38 38
27 29 30 30 30 31 33 32 34 33 35 37 38 39 38 38 37 38 39 40 41 43 44 45 46 47 48 49 50 52 53 56 62 65 63 59 56 55 53 51 52 55 55 53 50 47 43 42 41
30 31 31 31 30 32 35 35 36 37 37 38 40 41 42 41 41 41 41 41 42 42 42 43 45 46 47 48 49 51 51 49 50 54 55 53 52 51 47 43 46 51 52 53 53 51 48 47 46
31 30 30 29 29 29 30 32 31 35 35 37 39 39 39 39 39 38 38 38 38 38 38 39 40 41 43 44 46 48 49 49 50 50 50 51 49 46 44 39 40 47 50 51 53 52 51 51 50
24 24 24 24 24 24 25 26 27 29 28 30 31 30 31 31 31 31 31 31 31 33 34 36 37 38 41 43 45 47 49 50 49 48 46 46 44 41 39 36 36 43 48 49 49 49 49 48 47
16 17 16 15 15 17 23 23 26 26 26 26 26 25 25 26 27 28 29 30 31 33 35 36 38 39 41 43 45 48 50 51 51 48 44 42 39 37 35 34 34 38 40 40 42 41 40 39 39
14 15 16 15 14 15 17 18 21 22 23 24 25 26 26 27 28 29 29 30 32 33 35 37 38 40 43 46 48 47 48 49 49 47 41 37 34 32 31 32 33 33 33 34 36 36 37 37 37
12 13 15 17 17 17 18 19 20 24 26 26 27 28 30 31 31 31 31 31 32 33 36 38 39 42 45 47 46 44 43 44 43 40 36 32 30 28 29 31 32 31 31 31 32 34 36 37 36
13 15 17 20 24 24 23 23 24 27 31 31 30 30 32 32 33 34 33 32 33 34 36 38 41 44 46 44 40 38 37 37 36 34 33 31 28 25 25 27 27 26 26 28 30 31 32 33 32
20 22 25 27 29 32 33 30 29 32 36 37 34 32 33 33 34 35 35 35 35 35 36 38 40 43 42 37 34 32 32 32 32 32 33 32 28 26 25 25 24 24 27 30 32 32 30 28 27
24 25 28 31 33 35 38 37 33 34 39 42 39 36 36 35 35 35 35 35 36 35 34 35 38 38 34 29 27 28 30 32 33 32 30 29 29 28 27 27 26 27 29 30 30 29 27 26 27
Wind_Direction
120 108 108 120 122 128 129 125 122 118 117 113 109 105 100 103 106 104 109 122 131 137 140 140 142 147 154 167 172 163 157 218 298 355 3 3 19 38 49 55 61 61 60 57 57 59 74 90 73
129 116 115 124 121 137 148 142 132 128 128 122 114 109 103 102 109 115 118 126 138 145 151 154 156 163 172 189 218 216 342 335 329 331 344 350 355 1 11 30 31 36 39 35 30 20 1 315 274
145 134 125 129 128 145 157 158 158 157 153 140 132 126 116 114 120 123 124 131 140 151 163 175 175 183 207 261 289 320 347 350 339 333 337 342 348 352 351 3 20 21 19 15 12 5 352 331 288
165 152 138 130 144 157 168 175 205 205 189 166 156 154 144 140 140 140 143 148 151 163 189 201 204 220 250 274 286 306 333 340 336 328 329 332 344 1 0 359 358 354 353 354 359 5 2 347 321
179 182 170 158 182 267 325 313 355 232 235 235 218 227 239 226 217 208 198 193 188 197 223 236 238 251 270 285 293 301 317 327 331 322 314 318 330 344 343 337 341 343 344 345 344 349 359 1 344
181 195 205 208 220 266 306 334 359 1 345 332 319 300 292 272 264 260 249 237 233 232 237 247 254 264 275 288 295 296 303 311 318 316 298 294 305 312 318 319 330 338 342 340 334 334 340 349 351
184 191 209 220 227 248 257 270 327 332 331 327 320 306 292 276 279 287 308 297 276 271 266 261 265 270 276 285 290 292 296 303 308 306 287 277 287 298 305 308 311 323 330 331 330 332 337 345 352
207 196 199 215 218 207 210 223 246 280 305 316 317 307 289 278 277 278 288 294 286 282 280 274 274 277 282 288 291 293 293 293 295 292 282 275 280 290 296 298 290 291 303 310 317 328 338 341 345
231 230 225 225 228 220 220 238 252 268 290 309 316 311 297 281 280 279 280 283 283 281 280 280 282 282 285 288 291 292 290 286 284 279 275 275 279 283 288 291 287 279 278 285 295 313 327 334 339
237 243 244 240 241 240 240 248 256 263 266 271 295 310 305 289 282 280 279 276 276 276 278 279 280 279 280 284 287 289 289 286 283 280 278 278 279 280 282 284 283 277 269 270 275 289 304 320 332
237 246 253 255 254 255 253 252 252 256 262 260 265 277 285 284 281 277 273 273 277 282 283 280 277 273 273 278 282 283 282 281 280 281 285 288 288 287 285 282 279 272 265 265 266 269 280 294 312
240 247 256 261 262 261 260 257 253 253 259 260 261 263 269 270 270 269 269 271 274 277 279 277 274 270 269 275 281 281 279 278 279 283 287 290 292 293 292 289 280 271 264 263 263 260 267 277 288
244 247 255 262 265 264 263 262 261 257 256 257 259 261 262 261 261 264 268 271 274 273 273 274 272 271 272 275 279 279 276 276 278 284 285 283 285 286 288 289 284 276 268 264 262 258 261 270 278
245 248 251 256 260 264 266 269 267 260 258 257 257 257 257 260 263 267 269 272 276 277 277 278 275 270 271 274 276 275 274 274 277 281 281 279 277 278 282 284 284 280 273 268 265 260 261 267 274
243 246 249 251 255 260 265 268 266 264 262 261 259 259 260 262 265 267 270 273 275 279 281 280 278 274 271 271 271 270 270 271 274 277 279 277 274 270 272 277 280 278 275 271 267 262 261 266 270
247 247 249 252 254 258 260 258 263 266 267 267 267 266 266 267 268 268 270 272 274 277 278 278 278 278 277 275 273 270 267 267 268 270 272 273 271 268 266 269 274 275 272 269 265 261 261 264 266
248 248 249 253 254 256 257 256 265 269 269 270 271 271 270 270 271 271 269 269 271 272 272 272 273 272 273 274 275 274 269 264 262 262 264 266 266 265 264 265 268 270 269 265 262 260 259 261 266
252 253 254 254 255 256 257 259 263 266 269 270 271 271 271 271 271 271 271 271 272 272 273 275 275 273 271 270 270 269 269 265 261 260 261 263 263 264 263 263 264 265 265 262 260 259 258 260 266
255 256 258 259 260 259 259 260 262 265 268 270 272 273 272 272 272 272 273 274 274 274 275 275 275 273 273 273 271 268 267 268 266 264 263 264 266 267 266 264 261 260 261 260 260 259 258 260 264
261 261 261 262 262 262 263 264 263 263 265 267 270 271 272 271 271 271 272 272 272 272 273 273 274 273 274 277 277 274 271 268 268 269 269 269 270 272 270 264 259 256 257 257 258 259 258 259 263
265 264 264 264 264 265 265 267 266 260 262 265 268 270 270 270 270 270 271 272 271 272 272 271 272 273 274 277 279 280 282 279 271 269 269 272 275 279 277 268 258 253 253 254 257 257 257 259 262
268 267 269 269 268 266 268 268 270 271 268 267 267 268 270 271 272 272 272 271 271 272 273 272 273 274 275 275 276 277 279 280 277 274 274 276 281 282 279 269 254 249 250 254 255 256 255 257 260
268 270 270 271 271 270 270 271 273 277 275 272 270 270 271 273 275 276 276 275 275 276 276 276 277 277 277 277 276 275 275 274 272 273 276 280 280 280 278 270 256 248 248 252 254 254 255 255 258
270 272 273 273 275 277 272 273 277 278 278 277 276 276 276 277 278 279 280 280 280 281 283 283 282 281 280 280 279 277 276 274 274 275 278 280 278 274 272 266 257 249 249 252 253 253 253 254 257
275 277 280 282 282 279 276 272 273 277 278 278 279 280 280 282 284 286 288 288 288 287 287 288 289 289 288 288 285 281 277 275 274 276 277 277 276 269 262 257 253 251 250 247 245 245 247 251 255
269 274 277 278 274 276 281 277 275 277 278 278 279 279 281 284 286 287 290 290 290 290 290 291 292 293 293 294 292 285 277 272 270 270 270 268 268 265 257 251 247 245 241 238 238 240 246 251 254
276 271 276 284 286 286 284 282 280 283 283 282 280 278 280 282 284 287 290 292 293 294 294 296 300 301 300 297 291 281 272 266 263 260 258 256 256 256 253 246 242 238 237 238 241 245 250 251 253
294 289 287 289 291 289 285 283 281 283 283 284 282 279 280 282 285 289 295 298 300 300 300 302 305 305 303 297 285 274 266 259 252 246 243 244 245 247 247 242 238 237 238 239 242 246 250 252 252
294 293 292 291 290 290 289 285 285 285 286 286 284 282 281 284 287 292 298 301 304 304 304 306 307 306 303 293 279 266 256 249 240 236 236 239 239 239 240 241 240 241 243 245 246 248 248 247 249
286 288 291 292 294 294 293 292 292 287 286 286 285 283 282 283 286 291 297 300 304 304 305 306 306 307 303 290 265 252 244 236 229 231 231 231 234 233 234 236 239 243 248 248 246 244 245 248 252
Height
5932 5933 5933 5935 5937 5938 5938 5938 5937 5937 5936 5936 5935 5935 5935 5935 5936 5938 5937 5936 5935 5935 5935 5934 5933 5933 5933 5932 5932 5932 5932 5931 5931 5930 5928 5926 5925 5923 5923 5922 5920 5919 5917 5916 5915 5913 5912 5911 5910
5933 5933 5934 5936 5937 5939 5939 5938 5938 5938 5938 5937 5937 5937 5937 5937 5937 5937 5936 5937 5937 5937 5936 5936 5935 5934 5934 5934 5934 5934 5933 5933 5932 5931 5930 5928 5927 5925 5923 5922 5921 5920 5918 5916 5915 5914 5913 5911 5911
5933 5933 5935 5936 5937 5938 5939 5939 5939 5938 5938 5938 5938 5939 5939 5939 5939 5938 5937 5936 5937 5937 5937 5937 5936 5936 5936 5935 5935 5935 5935 5934 5933 5932 5930 5929 5927 5926 5925 5924 5922 5921 5919 5917 5915 5914 5912 5911 5910
5933 5934 5936 5937 5937 5937 5938 5938 5938 5938 5939 5939 5940 5940 5940 5940 5939 5939 5938 5937 5937 5937 5937 5937 5937 5937 5937 5936 5936 5936 5935 5934 5933 5932 5931 5929 5928 5927 5926 5926 5924 5922 5920 5918 5916 5914 5913 5911 5909
5932 5934 5935 5936 5936 5937 5937 5937 5938 5938 5939 5940 5941 5940 5940 5939 5938 5938 5938 5938 5937 5937 5937 5937 5936 5937 5937 5937 5936 5936 5936 5935 5934 5932 5931 5929 5928 5927 5926 5926 5925 5923 5921 5919 5917 5915 5913 5912 5909
5932 5933 5935 5936 5936 5936 5936 5936 5937 5937 5937 5938 5938 5938 5937 5937 5937 5937 5937 5937 5937 5936 5936 5936 5936 5935 5935 5936 5936 5935 5935 5934 5933 5931 5930 5929 5928 5927 5925 5925 5924 5922 5921 5919 5917 5915 5913 5911 5909
5931 5932 5933 5934 5934 5935 5936 5936 5936 5936 5936 5936 5936 5935 5935 5934 5934 5935 5935 5935 5935 5935 5934 5934 5934 5933 5933 5933 5933 5932 5932 5931 5930 5929 5928 5928 5927 5925 5924 5924 5922 5921 5920 5919 5917 5915 5912 5910 5909
5930 5932 5932 5933 5934 5935 5935 5935 5935 5935 5935 5935 5934 5934 5933 5932 5932 5932 5933 5932 5932 5932 5931 5931 5931 5930 5930 5930 5930 5929 5928 5927 5927 5926 5926 5925 5924 5923 5922 5921 5920 5919 5918 5917 5915 5914 5912 5910 5908
5927 5930 5931 5931 5933 5934 5934 5935 5935 5934 5934 5934 5933 5932 5932 5931 5930 5930 5930 5929 5929 5929 5928 5928 5928 5927 5927 5927 5926 5925 5924 5924 5923 5922 5921 5921 5920 5920 5919 5918 5917 5917 5916 5915 5913 5912 5911 5908 5906
5924 5926 5926 5928 5930 5932 5933 5933 5933 5933 5933 5932 5932 5931 5930 5929 5928 5927 5927 5926 5926 5925 5925 5925 5925 5924 5923 5923 5922 5922 5921 5920 5919 5918 5917 5916 5915 5915 5914 5914 5913 5913 5912 5912 5911 5910 5908 5906 5905
5921 5922 5922 5924 5927 5928 5929 5930 5931 5931 5930 5930 5929 5928 5927 5927 5926 5925 5924 5923 5922 5922 5921 5921 5920 5920 5919 5918 5917 5916 5916 5915 5914 5913 5912 5911 5910 5909 5908 5908 5908 5907 5908 5908 5907 5906 5905 5904 5903
5918 5918 5918 5919 5922 5924 5925 5926 5927 5928 5927 5925 5925 5925 5924 5924 5923 5921 5920 5919 5918 5918 5917 5916 5915 5914 5913 5912 5912 5911 5910 5909 5909 5908 5907 5907 5906 5905 5904 5903 5902 5902 5902 5903 5902 5902 5901 5900 5899
5913 5914 5915 5915 5915 5916 5918 5921 5923 5923 5922 5921 5920 5920 5921 5919 5917 5917 5916 5915 5914 5913 5912 5911 5910 5910 5909 5907 5906 5906 5905 5904 5904 5903 5903 5903 5902 5901 5900 5900 5898 5897 5897 5898 5898 5897 5896 5896 5895
5908 5910 5911 5910 5909 5909 5911 5914 5916 5915 5915 5916 5915 5915 5914 5914 5913 5913 5913 5912 5910 5909 5908 5907 5906 5904 5903 5902 5901 5900 5900 5899 5899 5898 5897 5897 5896 5896 5895 5894 5893 5893 5892 5892 5892 5892 5891 5891 5890
5903 5905 5905 5904 5904 5904 5907 5908 5904 5905 5907 5908 5909 5909 5910 5910 5909 5909 5908 5906 5905 5904 5902 5901 5899 5898 5896 5895 5894 5893 5893 5893 5892 5891 5889 5889 5888 5888 5887 5887 5887 5887 5887 5886 5886 5886 5886 5886 5885
5898 5900 5900 5898 5900 5899 5904 5903 5893 5898 5900 5901 5903 5903 5903 5903 5902 5902 5901 5899 5897 5896 5895 5894 5892 5891 5890 5889 5887 5886 5885 5884 5883 5882 5881 5880 5879 5878 5878 5878 5879 5879 5880 5880 5879 5880 5880 5880 5879
5892 5893 5893 5893 5893 5893 5895 5893 5889 5892 5892 5893 5894 5895 5895 5894 5893 5893 5892 5890 5889 5888 5887 5886 5885 5884 5883 5882 5881 5879 5878 5875 5874 5872 5871 5870 5869 5868 5868 5869 5869 5869 5871 5871 5871 5872 5873 5873 5872
5885 5886 5886 5886 5885 5887 5886 5885 5885 5885 5885 5885 5885 5885 5885 5885 5884 5883 5882 5882 5881 5879 5878 5878 5877 5876 5875 5874 5873 5872 5870 5866 5863 5862 5861 5860 5859 5859 5858 5858 5859 5859 5860 5861 5862 5864 5864 5865 5865
5879 5880 5880 5879 5879 5880 5879 5878 5879 5879 5878 5877 5876 5875 5875 5874 5874 5874 5873 5873 5872 5870 5869 5867 5866 5865 5863 5862 5861 5860 5859 5857 5855 5853 5851 5851 5850 5850 5848 5848 5847 5848 5849 5850 5852 5854 5856 5856 5856
5875 5875 5874 5874 5873 5873 5871 5871 5872 5871 5870 5869 5868 5866 5866 5865 5865 5865 5864 5863 5862 5861 5860 5858 5857 5855 5854 5852 5850 5849 5847 5845 5844 5843 5842 5841 5840 5838 5836 5835 5835 5835 5836 5839 5841 5844 5846 5847 5847
5869 5869 5868 5868 5868 5867 5866 5866 5863 5865 5863 5863 5861 5859 5858 5857 5857 5857 5856 5855 5854 5852 5850 5849 5847 5845 5843 5841 5839 5836 5833 5832 5833 5833 5831 5830 5828 5825 5822 5820 5820 5822 5825 5828 5830 5833 5836 5838 5838
5864 5862 5863 5862 5863 5862 5860 5860 5857 5855 5856 5855 5853 5852 5850 5849 5849 5848 5847 5846 5844 5842 5839 5837 5835 5833 5831 5829 5827 5824 5822 5821 5820 5818 5818 5816 5815 5812 5809 5806 5806 5809 5814 5817 5820 5822 5825 5828 5829
5856 5856 5856 5855 5855 5855 5854 5852 5851 5847 5847 5845 5844 5843 5841 5840 5839 5837 5835 5834 5832 5830 5828 5826 5824 5821 5819 5816 5814 5811 5810 5809 5807 5805 5803 5802 5801 5799 5798 5796 5796 5799 5803 5806 5809 5812 5814 5817 5820
5850 5850 5849 5849 5849 5849 5847 5846 5844 5840 5839 5836 5835 5834 5832 5830 5829 5827 5825 5824 5822 5819 5817 5815 5812 5810 5807 5804 5801 5799 5797 5795 5793 5790 5788 5787 5787 5787 5787 5787 5789 5791 5794 5797 5800 5802 5805 5807 5810
5846 5846 5846 5845 5846 5845 5840 5839 5838 5834 5832 5830 5829 5827 5824 5822 5820 5819 5817 5815 5812 5809 5806 5803 5801 5798 5794 5791 5787 5784 5781 5778 5776 5775 5774 5774 5775 5776 5777 5778 5779 5781 5784 5787 5790 5793 5796 5798 5801
5842 5842 5841 5841 5840 5839 5835 5834 5832 5829 5826 5825 5823 5821 5818 5816 5814 5812 5809 5806 5803 5800 5796 5793 5790 5785 5780 5775 5770 5766 5764 5762 5761 5761 5762 5763 5765 5766 5766 5768 5770 5772 5775 5778 5782 5785 5787 5790 5792
5839 5838 5836 5836 5834 5833 5832 5830 5827 5823 5821 5819 5817 5814 5812 5809 5807 5804 5801 5798 5794 5790 5786 5781 5777 5771 5765 5759 5753 5749 5747 5747 5747 5748 5750 5752 5755 5756 5758 5759 5761 5763 5766 5770 5773 5777 5779 5782 5783
5837 5835 5834 5832 5830 5828 5828 5826 5823 5818 5814 5812 5810 5807 5804 5801 5798 5795 5792 5788 5784 5780 5775 5769 5763 5756 5750 5743 5738 5734 5733 5734 5735 5738 5740 5743 5745 5747 5749 5751 5753 5755 5759 5763 5766 5769 5771 5773 5775
5834 5832 5829 5827 5825 5822 5819 5821 5817 5812 5807 5803 5802 5800 5797 5794 5790 5787 5783 5779 5774 5769 5764 5758 5751 5744 5737 5730 5726 5723 5722 5723 5726 5728 5730 5733 5737 5740 5742 5743 5746 5750 5753 5756 5759 5761 5763 5764 5765
5828 5827 5824 5821 5817 5813 5809 5810 5808 5804 5798 5794 5792 5791 5788 5785 5782 5779 5775 5771 5766 5760 5754 5748 5741 5734 5727 5722 5718 5716 5715 5715 5717 5720 5722 5725 5729 5732 5734 5736 5739 5743 5746 5748 5749 5752 5754 5755 5756